Regional Weather Roundup
Issued by NWS

Home | Current Version | Previous Version | Graphics & Text | Print | Product List | Glossary Off
Versions: 1 2 3 4 5 6 7 8 9 10 11 12 13 14 15 16 17 18 19 20 21 22 23 24 25 26 27 28 29 30 31 32 33 34 35 36 37 38 39 40 41 42 43 44 45 46 47 48 49 50

000
ASUS43 KLSX 272207
RWRMO

WEATHER SUMMARY FOR MISSOURI
NATIONAL WEATHER SERVICE SPRINGFIELD MO
500 PM CDT THU AUG 27 2015

NOTE: "FAIR" INDICATES FEW OR NO CLOUDS BELOW 12,000 FEET WITH NO
       SIGNIFICANT WEATHER AND/OR OBSTRUCTIONS TO VISIBILITY.
       CURRENT SKY AND/OR WEATHER CONDITIONS ARE NOT AVAILABLE FOR
       CHILLICOTHE AND FARMINGTON.

MOZ001>031-035>038-043-044-053-054-272300-
...NORTHERN AND WESTERN MISSOURI...

CITY           SKY/WX    TMP DP  RH WIND       PRES   REMARKS
KANSAS CTY INT PTSUNNY   76  65  68 S17       30.01F
KANSAS C DTWN  FAIR      75  66  73 S9        30.01F
LEE`S SUMMIT   FAIR      72  64  76 S10       30.03F
ST JOSEPH      FAIR      78  67  68 S13       29.98F
CHILLICOTHE      N/A     77  63  61 S10       30.07R
KIRKSVILLE     FAIR      75  60  59 S14       30.07S

$$
MOZ066>068-077>081-088>096-101>105-272300-
...SOUTHWEST MISSOURI...

CITY           SKY/WX    TMP DP  RH WIND       PRES   REMARKS
SPRINGFIELD    FAIR      80  62  54 NE7       30.09F
JOPLIN         FAIR      78  67  68 NE10      30.04F

$$
MOZ032>034-039>042-045>050-055>058-069>072-272300-
...CENTRAL MISSOURI...

CITY           SKY/WX    TMP DP  RH WIND       PRES   REMARKS
COLUMBIA       FAIR      73  62  68 SE10      30.05F
JEFFERSON CITY FAIR      77  60  55 SE7       30.06F
ROLLA          FAIR      76  57  51 SE5       30.10F
SEDALIA        FAIR      75  64  68 S14G24    30.02F
WHITEMAN AFB   PTSUNNY   73  63  69 SW7       30.02F
WARRENSBURG    FAIR      72  63  73 SE9       30.01F
OSAGE BEACH    FAIR      75  63  64 E5        30.10F

$$
MOZ051-052-059>065-272300-
...EAST CENTRAL MISSOURI...

CITY           SKY/WX    TMP DP  RH WIND       PRES   REMARKS
ST LOUIS INTL  PTSUNNY   77  55  46 E7        30.11F
SPIRIT OF STL  PTSUNNY   77  60  55 CALM      30.09F
ST CHARLES     FAIR      75  59  57 NE5       30.10F

$$
MOZ072>076-082>087-097>100-106>115-272300-
...SOUTH CENTRAL AND SOUTHEAST MISSOURI...

CITY           SKY/WX    TMP DP  RH WIND       PRES   REMARKS
CAPE GIRARDEAU FAIR      80  56  43 NE3       30.09F
FARMINGTON     FAIR      77  55  47 N3        30.15S
POPLAR BLUFF   FAIR      79  61  53 NE3       30.08F
WEST PLAINS    FAIR      77  56  48 VRB3      30.12F

$$



USA.gov is the U.S. government's official web portal to all federal, state and local government web resources and services.